User: anonymous   Login
Location: Unspecified
(0.0000°N, 0.0000°E)
Time: 09:25:29
(UTC+01:00)
Language:

YAOGAN 1 - Orbit

View from above orbital plane
View from above orbital plane
View from above satellite
View from above satellite

Ground track
Ground track

The orbit data is extracted from the following two-line orbital elements,

1 29092U 06015A   17020.14202736  .00000087  00000-0  17477-4 0  9994
2 29092  98.0053  31.3431 0001342  90.1096 270.0271 14.82757689580424
Epoch (UTC): 20 January 2017 03:24:31
Eccentricity: 0.0001342
inclination: 98.0053°
perigee height: 619 km
apogee height: 621 km
right ascension of ascending node: 31.3431°
argument of perigee: 90.1096°
revolutions per day: 14.82757689
mean anomaly at epoch: 270.0271°
orbit number at epoch: 58042

The dashed part of the orbit path shows where the satellite is in the earth's shadow,  

DLR